Regional Weather Roundup
Issued by NWS

Home | Current Version | Previous Version | Text Only | Print | Product List | Glossary Off
Versions: 1 2 3 4 5 6 7 8 9 10 11 12 13 14 15 16 17 18 19 20 21 22 23 24 25 26 27 28 29 30 31 32 33 34 35 36 37 38 39 40 41 42 43 44 45 46 47 48 49 50

000
ASUS43 KMPX 031210
RWRMN
WEATHER ROUNDUP FOR MINNESOTA
NATIONAL WEATHER SERVICE TWIN CITIES/CHANHASSEN MN
700 AM CDT TUE MAY 03 2016


NOTE: "FAIR" INDICATES FEW OR NO CLOUDS BELOW 12,000 FEET WITH NO
SIGNIFICANT WEATHER AND/OR OBSTRUCTIONS TO VISIBILITY. N/A MEANS
CURRENT SKY AND/OR WEATHER CONDITIONS ARE NOT AVAILABLE.

MNZ060>063-068>070-031300-
   Twin Cities Metro

CITY           SKY/WX    TMP DP  RH WIND       PRES   REMARKS
TWIN CITIES    CLOUDY    49  38  65 SW5       29.94S
6HR MIN TEMP:  48; 6HR MAX TEMP:  54;

ST PAUL        CLOUDY    49  38  65 CALM      29.94F
CRYSTAL        CLOUDY    51  37  58 SW5       29.92S
BLAINE         PTCLDY    50  39  66 SW6       29.92F
EDEN PRAIRIE   CLEAR     47  38  71 SW6       29.94S
6HR MIN TEMP:  45; 6HR MAX TEMP:  52;

SOUTH ST PAUL  CLEAR     51  38  61 W5        29.93S
LAKE ELMO      FAIR      46  39  76 SW5       29.94R
$$
MNZ001>005-007-008-013>017-022>024-027-028-031300-
   Northwest Minnesota

CITY           SKY/WX    TMP DP  RH WIND       PRES   REMARKS
BEMIDJI        CLEAR     50  34  55 W13       29.85F
HALLOCK        MOCLDY    52  36  54 W9        29.82S
ROSEAU         MOCLDY    52  39  62 W9G16     29.79S
WARROAD        PTCLDY    50  39  66 W10       29.78F
THIEF RVR FALL MOCLDY    52  34  50 W14       29.86R
CROOKSTON      PTCLDY    50  39  66 W12       29.88S
FOSSTON        PTCLDY    45  34  65 SW10      29.87F
DETROIT LAKES  CLOUDY    52  37  58 W10       29.92F
MOORHEAD       CLOUDY    45  37  76 SW7       29.93S
PARK RAPIDS    CLOUDY    45  35  68 W8        29.89S
MAHNOMEN       FAIR      42  36  77 SW7       29.90S
$$
MNZ006-009>011-018-025>026-031300-
   North Central Minnesota

CITY           SKY/WX    TMP DP  RH WIND       PRES   REMARKS
BAUDETTE       CLOUDY    56  35  45 W14G23    29.75F
FLAG ISLAND    CLOUDY    52  37  58 NW16      29.75R
INTL FALLS     CLOUDY    51  35  54 W10G21    29.73F
6HR MIN TEMP:  35; 6HR MAX TEMP:  52;

WASKISH        CLOUDY    52  43  71 SW14G21   29.80S
BIG FORK       MOCLDY    50  36  57 SW7       29.80F
LONGVILLE      PTCLDY    54  36  50 W12G17    29.86S
GRAND RAPIDS   CLOUDY    52  34  50 W6        29.84F
CRANE LAKE     CLOUDY    54  32  43 W5        29.73F
ORR            CLOUDY    54  34  47 W10G18    29.73F
COOK           CLOUDY    50  36  57 W9        29.77F
WALKER         FAIR      53  34  49 W14G20    29.86S
$$
MNZ012-019>021-037-031300-
   Northeast Minnesota

CITY           SKY/WX    TMP DP  RH WIND       PRES   REMARKS
DULUTH         CLOUDY    50  35  56 W14       29.81F
6HR MIN TEMP:  45; 6HR MAX TEMP:  50;

ELY            CLOUDY    48  32  53 SW7       29.74F
HIBBING        CLOUDY    49  36  61 W6        29.80F
EVELETH        CLOUDY    45  34  65 W5        29.80F
DULUTH HARBOR  CLOUDY    48  37  66 SW13      29.82F
TWO HARBORS    CLOUDY    54  37  54 W7        29.77F
SILVER BAY     CLOUDY    52  32  46 W3        29.74F
GRAND MARAIS     N/A     39  34  82 W8        29.72F
G MARAIS ARPRT CLOUDY    48  27  43 W7        29.73F
$$
MNZ029>031-032-039>041-046>048-054>057-064-031300-
   West Central Minnesota

CITY           SKY/WX    TMP DP  RH WIND       PRES   REMARKS
FERGUS FALLS   CLOUDY    41  36  81 CALM      29.94S
WHEATON        CLOUDY    46  41  81 W5        29.99S
MORRIS         MOCLDY    43  37  81 NW3       29.96S
ALEXANDRIA     CLOUDY    45  38  76 W6        29.96R
ELBOW LAKE     FAIR      41  35  79 SW5       29.96S
WADENA         CLOUDY    45  37  76 W6        29.92S
GLENWOOD       PTCLDY    46  39  76 W9        29.96R
APPLETON       CLOUDY    43  39  87 W7        29.97S
BENSON         CLOUDY    39  36  87 CALM      29.97S
ORTONVILLE     CLEAR     45  39  81 W6        29.98R HAZE
MADISON        PTCLDY    43  37  81 W7        29.98S
WILLMAR        FAIR      43  37  81 W5        29.98S
$$
MNZ033>034-036-042>043-049>051-058-059-031300-
   Central Minnesota

CITY           SKY/WX    TMP DP  RH WIND       PRES   REMARKS
ST CLOUD       PTCLDY    41  36  82 CALM      29.93R
6HR MIN TEMP:  39; 6HR MAX TEMP:  45;

SAUK CENTRE    FAIR      41  36  81 W3        29.95R
PAYNESVILLE    CLEAR     39  35  83 W3        29.95S
AITKIN         PTCLDY    52  32  46 SW6       29.86F
PINE RIVER     CLOUDY    48  37  66 W3        29.92S
BRAINERD       CLOUDY    44  35  70 SW8       29.90S
STAPLES        PTCLDY    46  37  71 W8        29.91S
LONG PRAIRIE   FAIR      46  36  66 W7        29.94R
LITTLE FALLS   CLOUDY    37  32  81 CALM      29.92S
LITCHFIELD     CLEAR     46  37  71 W5        29.95F
BUFFALO        CLOUDY    46  37  73 CALM      29.94F
MAPLE LAKE     CLOUDY    47  39  74 CALM      29.94S
HUTCHINSON     PTCLDY    44  38  81 W6        29.97S
$$
MNZ037-044-045-052-053-031300-
   East Central Minnesota

CITY           SKY/WX    TMP DP  RH WIND       PRES   REMARKS
PRINCETON      CLOUDY    43  37  81 CALM      29.92S
MORA           CLOUDY    45  34  65 CALM      29.91F
CAMBRIDGE      PTCLDY    50  37  62 W3        29.89S
RUSH CITY      CLOUDY    47  37  67 W6        29.91R
MOOSE LAKE     MOSUNNY   50  34  53 W7        29.85S
HINCKLEY       FAIR      41  36  81 W3        29.89S
CLOQUET        CLOUDY    52  32  46 W9        29.84S
MCGREGOR       CLOUDY    50  34  53 W7        29.87S
$$
MNZ071>073-080-081-089-090-097-098-031300-
   Southwest Minnesota

CITY           SKY/WX    TMP DP  RH WIND       PRES   REMARKS
MONTEVIDEO     CLEAR     45  39  81 W5        29.99S
GRANITE FALLS  CLEAR     45  39  81 SW6       30.00S
CANBY          CLEAR     47  41  79 SW6       30.00S
MARSHALL       CLEAR     45  38  76 W7        29.99S
REDWOOD FALLS  CLEAR     48  38  68 W9        29.97S
OLIVIA         CLEAR     41  36  81 W3        29.97R
PIPESTONE      CLEAR     39  37  93 CALM      30.01S
WINDOM         CLEAR     45  37  76 CALM      30.00S
WORTHINGTON    CLEAR     43  37  79 W6        30.02S
JACKSON        CLEAR     43  36  75 W5        30.01F
TRACY          CLEAR     47  40  75 SW7       30.00S
SLAYTON        CLEAR     43  39  85 CALM      30.01S
$$
MNZ065>067-074>077-082>085-091>093-031300-
   South Central Minnesota

CITY           SKY/WX    TMP DP  RH WIND       PRES   REMARKS
MANKATO        CLEAR     46  37  71 W8        29.97S
NEW ULM        CLEAR     43  39  87 W7        29.98S
ST JAMES       CLEAR     39  36  87 SW8       30.00S
FAIRMONT       CLEAR     45  36  70 W6        30.00S
GLENCOE        CLEAR     46  40  81 SW5       29.95S
FARIBAULT      CLEAR     45  39  81 S1        29.97S
OWATONNA       CLEAR     46  37  71 SW6       29.97F
WASECA         CLEAR     41  36  81 SW6       29.99S
ALBERT LEA     CLEAR     45  39  81 CALM      29.99S
$$
MNZ078>079-086>088-094>096-031300-
   Southeast Minnesota

CITY           SKY/WX    TMP DP  RH WIND       PRES   REMARKS
ROCHESTER      CLEAR     46  41  82 SW10      29.98S
6HR MIN TEMP:  43; 6HR MAX TEMP:  48;

RED WING       CLEAR     41  39  93 CALM      29.94S
STANTON        CLEAR     48  39  69 S3        29.94F
DODGE CENTER   CLEAR     45  39  81 W7        29.97S
WINONA         SUNNY     41  39  93 CALM      29.97S
AUSTIN         CLEAR     39  37  93 SW5       29.98F
PRESTON        CLEAR     47  38  71 W12       29.98F
$$
ABBREVIATIONS USED IN REMARKS
   TC - TEMPERATURES IN CELSIUS
  WCI - WIND CHILL INDEX
   HX - HEAT INDEX
  VSB - VISIBILITY
$$




USA.gov is the U.S. government's official web portal to all federal, state and local government web resources and services.